Simultaneous Nadir Overpasses (SNOs) Predictions

Prediction of SNOs between METOP-B and TERRA Satellite Orbit:

Table of predicted SNOs for the next 14.0 days since TLE Epoch: 12/14/2013
Index Date (METOP-B) Time (METOP-B) Lat,Lon (METOP-B) SZA (METOP-B ) Date (TERRA) Time (TERRA) Lat,Lon (TERRA) SZA (TERRA ) Distance(km) Time Diff (sec)
1 12/16/2013 17:35:47 81.29, -37.07 107.33 12/16/2013 17:36:04 81.28, -37.21 107.32 2.39 17
2 12/16/2013 18:26:27 -81.29, 130.89 72.60 12/16/2013 18:25:30 -81.30, 130.72 72.65 2.85 57
3 12/19/2013 13:10:11 81.28, 29.24 107.36 12/19/2013 13:10:32 81.28, 29.16 107.35 1.57 21
4 12/19/2013 14:00:50 -81.29,-162.78 72.57 12/19/2013 13:59:57 -81.30,-162.87 72.60 1.54 53
5 12/22/2013 08:44:34 81.28, 95.47 107.31 12/22/2013 08:45:04 81.28, 95.48 107.33 0.39 30
6 12
